Location: Newark
(45.5167°N, 11.1667°E)
Time: 14:39:44
(UTC+00:00)

Explorer 7 - Pass Details

Date: 17 December 2019
Orbit: 485 x 679 km, 50.3° (Epoch: 16 January)

Event Time Altitude Azimuth Distance (km) Brightness Sun altitude
Rises 18:45:47 0° 293° (WNW) 3,037 11.5 -32.7°
Reaches altitude 10° 18:48:18 10° 286° (WNW) 2,118 10.6 -33.1°
Enters shadow 18:51:16 29° 258° (WSW) 1,218 9.0 -33.7°
Maximum altitude 18:52:48 37° 220° (SW) 1,037 - -33.9°
Drops below altitude 10° 18:57:12 10° 153° (SSE) 2,062 - -34.7°
Sets 18:59:37 0° 145° (SE) 2,945 - -35.1°
